Regional Weather Roundup
Issued by NWS

Home | Current Version | Previous Version | Text Only | Print | Product List | Glossary Off
Versions: 1 2 3 4 5 6 7 8 9 10 11 12 13 14 15 16 17 18 19 20 21 22 23 24 25 26 27 28 29 30 31 32 33 34 35 36 37 38 39 40 41 42 43 44 45 46 47 48 49 50

423
ASUS44 KJAN 192203
RWRMS

MISSISSIPPI HOURLY WEATHER ROUNDUP
NATIONAL WEATHER SERVICE JACKSON MS
400 PM CST FRI DEC 19 2014

NOTE: "FAIR: INDICATES FEW OR NO CLOUDS BELOW 12,000 FEET WITH NO
SIGNIFICANT WEATHER AND/OR OBSTRUCTIONS TO VISIBILITY.

MSZ001>002-007>008-010>013-018>021-025>028-034>036-192300-
NORTHWEST MISSISSIPPI

CITY           SKY/WX    TMP DP  RH WIND       PRES   REMARKS
CLARKSDALE     MOCLDY    45  39  81 NE8       30.19S
CLEVELAND      DRIZZLE   45  43  94 E8        30.16F
GREENWOOD      LGT RAIN  46  45  96 NE8       30.17S
GREENVILLE     CLOUDY    47  43  86 NE9       30.14F
GRENADA        LGT RAIN  43  41  93 CALM      30.18S
OLIVE BRANCH   CLOUDY    41  37  87 NE8       30.20R
OXFORD         FAIR      41  36  81 NE5       30.20S
TUNICA         LGT RAIN  43  37  81 NE6       30.19F
$$

MSZ003>006-009-014>017-022>024-029>033-037>039-192300-
NORTHEAST MISSISSIPPI

CITY           SKY/WX    TMP DP  RH WIND       PRES   REMARKS
COLUMBUS AFB   CLOUDY    47  36  65 N6        30.18R
CORINTH        MOCLDY    43  32  65 NE8       30.20R
GOLDN TRIANGLE CLOUDY    48  37  66 N8        30.16S
STARKVILLE     LGT RAIN  46  41  81 NE7       30.15F
TUPELO         CLOUDY    45  36  70 NE7       30.19R
$$

MSZ040-058-192300-
CENTRAL MISSISSIPPI

CITY           SKY/WX    TMP DP  RH WIND       PRES   REMARKS
JACKSON INTL   LGT RAIN  47  44  90 NE5       30.16R
JACKSON HAWKNS LGT RAIN  46  43  89 E5        30.16R
MERIDIAN KEY   LGT RAIN  45  42  89 NE7       30.15R
MERIDIAN NAS   LGT RAIN  45  42  89 NE3       30.17R
RAYMOND        LGT RAIN  46  41  81 CALM      30.16R
VICKSBURG      LGT RAIN  47  44  90 NE7       30.16R
$$

MSZ059>079-192300-
SOUTH MISSISSIPPI

CITY           SKY/WX    TMP DP  RH WIND       PRES   REMARKS
HATTIESBURG    LGT RAIN  48  45  89 NE7       30.13F FOG
MCCOMB         LGT RAIN  45  42  89 NE5       30.10R
NATCHEZ        CLOUDY    46  43  87 NE5       30.14R
PINE BELT      CLOUDY    46  43  87 NE7       30.13F
$$

MSZ080>082-192300-
COASTAL MISSISSIPPI

CITY           SKY/WX    TMP DP  RH WIND       PRES   REMARKS
BAY ST LOUIS   LGT RAIN  48  46  93 N9        30.09S FOG
BILOXI         HVY RAIN  50  50 100 NE10      30.08S FOG
PASCAGOULA     RAIN      50  48  93 NE9       30.09F FOG
GULFPORT       LGT RAIN  50  48  93 NE10      30.07F FOG
$$



USA.gov is the U.S. government's official web portal to all federal, state and local government web resources and services.